Weather History for Frenchville, ME

Change the Weather History Date:

Sunday, February 23, 2014

  Actual Average Record
Temperature  
Mean Temperature 26 °F 16 °F  
Max Temperature 31 °F 24 °F 34 °F (2012)
Min Temperature 20 °F 7 °F -7 °F (2001)
Degree Days  
Heating Degree Days 39    
Month to date heating degree days 1202  
Since 1 July heating degree days 6636  
Cooling Degree Days 0    
Month to date cooling degree days 0  
Year to date cooling degree days 0  
Moisture  
Dew Point 14 °F    
Average Humidity 62    
Maximum Humidity 89    
Minimum Humidity 43    
Precipitation  
Precipitation T in 0.04 in 0.36 in (1998)
Month to date precipitation 0.90 0.60  
Year to date precipitation 2.90 2.36  
Sea Level Pressure  
Sea Level Pressure 29.71 in    
Wind  
Wind Speed 11 mph (WSW)    
Max Wind Speed 26 mph    
Max Gust Speed 34 mph    
Visibility 9 miles    
Events Snow    
T = Trace of Precipitation, MM = Missing Value Source: NWS Daily Summary

Daily Weather History Graph

Daily Weather History Graph

Search for Another Location

Airport:

Trip Planner

Search our weather history database for the weather conditions in past years. The results will help you decide how hot, cold, wet, or windy it might be!

Date:

Astronomy

Feb. 23, 2014 Rise Set
Actual Time 6:24 AM EST 5:09 PM EST
Civil Twilight 5:53 AM EST 5:40 PM EST
Nautical Twilight 5:18 AM EST 6:15 PM EST
Astronomical Twilight 4:42 AM EST 6:51 PM EST
Moon 1:31 AM EST (2/23) 10:56 AM EST (2/23)
Length of Visible Light 11h 46m
Length of Day
10h 44m
Last Quarter, 39% of the Moon is Illuminated
Feb 23
Last Quarter
Mar 1
New
Mar 8
First Quarter
Mar 16
Full
Mar 23
Last Quarter

Hourly Weather History & Observations

Time (EST) Temp. Windchill Dew Point Humidity Pressure Visibility Wind Dir Wind Speed Gust Speed Precip Events Conditions
12:04 AM 28.0 °F 14.3 °F 25.0 °F 88% 29.61 in 0.8 mi WSW 21.9 mph 38.0 mph 0.00 in Snow Light Snow
12:13 AM 27.0 °F 13.2 °F 24.1 °F 89% 29.61 in 1.2 mi WSW 20.7 mph 33.4 mph 0.00 in Snow Light Snow
12:15 AM 27.0 °F 13.2 °F 24.1 °F 89% 29.62 in 1.8 mi WSW 20.7 mph 33.4 mph 0.00 in Snow Light Snow
12:18 AM 27.0 °F 13.5 °F 24.1 °F 89% 29.62 in 3.0 mi WSW 19.6 mph 32.2 mph 0.00 in Snow Light Snow
12:53 AM 28.0 °F 16.1 °F 21.9 °F 78% 29.65 in 10.0 mi WSW 16.1 mph 23.0 mph 0.00 in   Mostly Cloudy
1:53 AM 27.0 °F 15.6 °F 19.9 °F 75% 29.69 in 10.0 mi WSW 13.8 mph - N/A   Mostly Cloudy
2:07 AM 27.0 °F 13.5 °F 19.9 °F 75% 29.67 in 10.0 mi West 19.6 mph 26.5 mph N/A   Mostly Cloudy
2:43 AM 27.0 °F 16.1 °F 19.0 °F 72% 29.68 in 10.0 mi West 12.7 mph - 0.00 in   Overcast
2:53 AM 27.0 °F 15.6 °F 18.0 °F 69% 29.72 in 10.0 mi WSW 13.8 mph - 0.00 in   Overcast
3:53 AM 26.1 °F 15.0 °F 15.1 °F 63% 29.74 in 10.0 mi WSW 12.7 mph 23.0 mph N/A   Overcast
4:53 AM 25.0 °F 12.6 °F 12.9 °F 60% 29.77 in 10.0 mi WSW 15.0 mph 19.6 mph N/A   Scattered Clouds
5:53 AM 23.0 °F 13.1 °F 12.0 °F 63% 29.76 in 10.0 mi WSW 9.2 mph - N/A   Clear
6:53 AM 21.9 °F 14.5 °F 10.9 °F 63% 29.78 in 10.0 mi South 5.8 mph - N/A   Clear
7:53 AM 21.9 °F 14.5 °F 10.9 °F 63% 29.79 in 10.0 mi South 5.8 mph - N/A   Overcast
8:53 AM 26.1 °F 14.5 °F 12.9 °F 58% 29.78 in 10.0 mi SW 13.8 mph 20.7 mph N/A   Clear
9:53 AM 28.9 °F 17.3 °F 14.0 °F 54% 29.76 in 10.0 mi West 16.1 mph 24.2 mph N/A   Clear
10:53 AM 28.9 °F 16.9 °F 12.9 °F 51% 29.76 in 10.0 mi WSW 17.3 mph 26.5 mph N/A   Overcast
11:53 AM 28.9 °F 16.1 °F 12.9 °F 51% 29.74 in 10.0 mi WSW 19.6 mph 26.5 mph N/A   Overcast
12:53 PM 28.9 °F 15.1 °F 12.9 °F 51% 29.74 in 10.0 mi WSW 23.0 mph 29.9 mph N/A   Overcast
1:53 PM 30.9 °F 18.1 °F 10.9 °F 43% 29.73 in 10.0 mi WSW 21.9 mph 27.6 mph N/A   Scattered Clouds
2:53 PM 30.9 °F 19.8 °F 10.9 °F 43% 29.73 in 10.0 mi WSW 16.1 mph 28.8 mph N/A   Mostly Cloudy
3:53 PM 30.0 °F 20.0 °F 10.9 °F 45% 29.73 in 10.0 mi West 12.7 mph - N/A   Clear
4:53 PM 28.0 °F 20.0 °F 10.9 °F 49% 29.73 in 10.0 mi West 8.1 mph - N/A   Clear
5:53 PM 26.1 °F 19.4 °F 10.0 °F 51% 29.73 in 10.0 mi NNW 5.8 mph - N/A   Clear
6:53 PM 24.1 °F - 10.0 °F 55% 29.73 in 10.0 mi Calm Calm - N/A   Clear
7:53 PM 25.0 °F - 10.0 °F 53% 29.72 in 10.0 mi Calm Calm - N/A   Clear
8:53 PM 24.1 °F 19.7 °F 10.0 °F 55% 29.72 in 10.0 mi West 3.5 mph - N/A   Partly Cloudy
9:53 PM 24.1 °F 17.0 °F 10.0 °F 55% 29.71 in 10.0 mi West 5.8 mph - N/A   Clear
10:53 PM 21.0 °F 12.4 °F 9.0 °F 60% 29.70 in 10.0 mi South 6.9 mph - N/A   Clear
11:53 PM 19.9 °F 12.1 °F 9.0 °F 62% 29.68 in 10.0 mi WSW 5.8 mph - N/A   Clear